Lamezia Terme, Italy

4:25 PM CEST on August 27, 2016 (GMT +0200)
Terme

Weather History for LICA - March, 2013

Change the Weather History Date:

Friday, March 29, 2013

  Actual Average Record
Temperature  
Mean Temperature 63 °F -  
Max Temperature 71 °F 62 °F 71 °F (2013)
Min Temperature 53 °F 48 °F 41 °F (1999)
Degree Days  
Heating Degree Days 2    
Growing Degree Days 13 (Base 50)    
Moisture  
Dew Point 53 °F    
Average Humidity 74    
Maximum Humidity 94    
Minimum Humidity 55    
Precipitation  
Precipitation 0.00 in - - ()
Sea Level Pressure  
Sea Level Pressure 29.87 in    
Wind  
Wind Speed 8 mph ()    
Max Wind Speed 16 mph    
Max Gust Speed -    
Visibility 6.2 miles    
Events      
Averages and records for this station are not official NWS values.
T = Trace of Precipitation, MM = Missing Value Source: Averaged Metar Reports

Daily Weather History Graph

Daily Weather History Graph

Search for Another Location

Airport or City:

Trip Planner

Search our weather history database for the weather conditions in past years. The results will help you decide how hot, cold, wet, or windy it might be!

Date:

Astronomy

Mar. 29, 2013 Rise Set
Actual Time 5:44 AM CET 6:15 PM CET
Civil Twilight 5:17 AM CET 6:42 PM CET
Nautical Twilight 4:46 AM CET 7:14 PM CET
Astronomical Twilight 4:13 AM CET 7:46 PM CET
Moon 8:54 PM CET (3/29) 6:42 AM CET (3/29)
Length of Visible Light 13h 24m
Length of Day
12h 31m
Waning Gibbous, 95% of the Moon is Illuminated
Mar 29
Waning Gibbous
Apr 3
Last Quarter
Apr 10
New
Apr 18
First Quarter
Apr 25
Full

Hourly Weather History & Observations

Time (CET) Temp. Dew Point Humidity Pressure Visibility Wind Dir Wind Speed Gust Speed Precip Events Conditions
12:50 AM 57.2 °F 50.0 °F 77% 29.89 in 6.2 mi ENE 15.0 mph - N/A   Partly Cloudy
1:50 AM 59.0 °F 48.2 °F 67% 29.86 in 6.2 mi East 16.1 mph - N/A   Partly Cloudy
2:50 AM 62.6 °F 46.4 °F 55% 29.86 in 6.2 mi NE 8.1 mph - N/A   Partly Cloudy
3:50 AM 59.0 °F 48.2 °F 67% 29.86 in 6.2 mi ESE 9.2 mph - N/A   Partly Cloudy
4:50 AM 59.0 °F 48.2 °F 67% 29.86 in 6.2 mi Variable 2.3 mph - N/A   Partly Cloudy
5:50 AM 59.0 °F 51.8 °F 77% 29.92 in 6.2 mi West 5.8 mph - N/A   Scattered Clouds
8:50 AM 60.8 °F 51.8 °F 72% 29.92 in 6.2 mi Variable 2.3 mph - N/A   Light Drizzle
9:50 AM 60.8 °F 53.6 °F 77% 29.89 in 6.2 mi ENE 9.2 mph - N/A   Scattered Clouds
10:50 AM 64.4 °F 53.6 °F 68% 29.89 in 6.2 mi ESE 5.8 mph - N/A   Scattered Clouds
11:50 AM 68.0 °F 53.6 °F 60% 29.89 in - NE 13.8 mph - N/A   Clear
12:50 PM 69.8 °F 55.4 °F 60% 29.86 in - East 12.7 mph - N/A   Clear
1:50 PM 71.6 °F 57.2 °F 60% 29.86 in - North 6.9 mph - N/A   Clear
2:50 PM 68.0 °F 55.4 °F 64% 29.83 in - WNW 15.0 mph - N/A   Clear
3:50 PM 64.4 °F 55.4 °F 73% 29.83 in - WSW 9.2 mph - N/A   Clear
4:50 PM 64.4 °F 53.6 °F 68% 29.83 in - SSW 11.5 mph - N/A   Clear
5:50 PM 60.8 °F 53.6 °F 77% 29.83 in - SSW 4.6 mph - N/A   Clear
6:50 PM 59.0 °F 53.6 °F 82% 29.83 in - Variable 2.3 mph - N/A   Clear
7:50 PM 57.2 °F 53.6 °F 88% 29.86 in - Variable 2.3 mph - N/A   Clear
8:50 PM 55.4 °F 53.6 °F 94% 29.86 in - Variable 2.3 mph - N/A   Clear
9:50 PM 55.4 °F 53.6 °F 94% 29.89 in - Variable 2.3 mph - N/A   Clear
10:50 PM 55.4 °F 53.6 °F 94% 29.86 in - NNW 4.6 mph - N/A   Clear
11:50 PM 53.6 °F 51.8 °F 94% 29.86 in - Calm Calm - N/A   Clear